Regional Weather Roundup
Issued by NWS

Home | Current Version | Previous Version | Text Only | Print | Product List | Glossary Off
Versions: 1 2 3 4 5 6 7 8 9 10 11 12 13 14 15 16 17 18 19 20 21 22 23 24 25 26 27 28 29 30 31 32 33 34 35 36 37 38 39 40 41 42 43 44 45 46 47 48 49 50

000
ASUS43 KFSD 231102
RWRSD

WEATHER ROUNDUP FOR SOUTH DAKOTA
NATIONAL WEATHER SERVICE SIOUX FALLS SD
600 AM CDT TUE MAY 23 2017

NOTE: "FAIR" INDICATES FEW OR NO CLOUDS BELOW 12,000 FEET WITH NO
SIGNIFICANT WEATHER AND/OR OBSTRUCTIONS TO VISIBILITY.


SDZ001>005-009-010-012>017-231200-
NORTHWEST AND NORTH CENTRAL SOUTH DAKOTA

CITY           SKY/WX    TMP DP  RH WIND       PRES   REMARKS
BUFFALO          N/A     43  35  73 N10       30.08F
FAITH            N/A     38  37  97 NW10      30.09S
MOBRIDGE       CLOUDY    51  39  63 NW13      29.99S
$$

SDZ012>016-024>037-041>051-057-063-072>074-231200-
SOUTHWEST AND SOUTH CENTRAL SOUTH DAKOTA

CITY           SKY/WX    TMP DP  RH WIND       PRES   REMARKS
RAPID CTY ARPT CLOUDY    48  39  71 N15       30.12R
PIERRE         CLOUDY    48  40  73 NW14      30.00S
CUSTER         CLEAR     39  31  72 N7        30.15S
ELLSWORTH AFB  CLOUDY    48  40  73 NW16      30.12R
PHILIP         CLEAR     43  39  86 N13       30.07S
PINE RIDGE     CLEAR     41  38  89 W5        30.10S
SPEARFISH      CLOUDY    43  37  81 W8        30.16S
WINNER         CLOUDY    50  42  74 N16       29.99R
$$

SDZ004>011-016>023-039-040-231200-
NORTHEAST SOUTH DAKOTA

CITY           SKY/WX    TMP DP  RH WIND       PRES   REMARKS
ABERDEEN       CLOUDY    46  43  89 N15       29.94S FOG
WATERTOWN      CLOUDY    45  44  97 N9        29.87S
BROOKINGS      CLOUDY    46  44  93 NW10      29.88S
SISSETON         N/A     47  46  97 N15       29.88R
$$

SDZ017-020-022-023-036>040-048>070-231200-
SOUTHEAST SOUTH DAKOTA

CITY           SKY/WX    TMP DP  RH WIND       PRES   REMARKS
SIOUX FALLS    CLOUDY    48  45  89 NW9       29.88F
HURON          CLOUDY    47  45  93 NW10      29.93S
CHAMBERLAIN    CLOUDY    50  45  83 NW12G17   29.98R
MITCHELL       CLOUDY    48  45  89 NW9       29.93S
YANKTON        CLOUDY    48  44  86 W10       29.92S
$$

ABBREVIATIONS USED IN REMARKS
   TC - TEMPERATURE IN CELSIUS
  WCI - WIND CHILL INDEX
   HX - HEAT INDEX
  VSB - VISIBILITY




USA.gov is the U.S. government's official web portal to all federal, state and local government web resources and services.